Location: Eastchurch
(51.4000°N, 0.8667°E)
Time: 07:16:17
(UTC+00:00)

YAOGAN 3 - Pass Details

Date: 19 January 2026
Orbit: 596 x 598 km, 97.8° (Epoch: 18 February)

Event Time Altitude Azimuth Distance (km) Brightness Sun altitude
Rises 18:22:25 0° 155° (SSE) 2,837 7.8 -18.0°
Reaches altitude 10° 18:24:36 10° 153° (SSE) 1,939 6.9 -18.3°
Maximum altitude 18:28:45 64° 72° (ENE) 669 4.4 -18.9°
Drops below altitude 10° 18:32:57 10° 351° (N) 1,953 7.1 -19.6°
Sets 18:35:09 0° 349° (N) 2,860 8.0 -19.9°
